FLOCK 4Y-13 (55079 NORAD) Tracking and Keplerian Element Data

This shows tracking and keplerian element data for the satellite.

Feedback or suggestion? Click here.




ElementValue
Catalog55079
NameFLOCK 4Y-13
Epoch Orbit1878
Epoch Day126.62847359
Epoch Year2023
RAAN187.0387
Inclination97.4825
Eccentricity0.0016368
Argument of Perigee152.0927
Mean Anonmoly208.1188
Mean Motion15.17647372
Decay Rate0.00012639
L11 55079U 23001BY 23126.62847359 .00012639 00000+0 62859-3 0 9993
L22 55079 97.4825 187.0387 0016368 152.0927 208.1188 15.17647372 18782



Live tracking and technical data element details for FLOCK 4Y-13 (NORAD 55079). FLOCK 4Y-13 can be tracked NOW for your location showing map with azimuth and elevation plus other details from your city location.







IsCatalogInMostPopularTable: catalog: 55079, numindb: -1

Insert: records affected: 1


GetName: 55079 FLOCK 4Y-13

Hit Count: inserted at: Mon, 05 Jun 2023 20:20:58 GMT